Location: Patterson (historical)
(35.1418°N, 90.5529°W)
Time: 17:44:01
(UTC+00:00)

Cosmos 1980 Rocket - Pass Details

Date: 11 December 2025
Orbit: 830 x 847 km, 71.0° (Epoch: 20 January)

Event Time Altitude Azimuth Distance (km) Brightness Sun altitude
Rises 23:10:06 0° 179° (S) 3,386 5.7 -4.4°
Reaches altitude 10° 23:12:41 10° 171° (S) 2,453 4.8 -4.9°
Maximum altitude 23:17:51 38° 105° (ESE) 1,251 2.8 -5.8°
Drops below altitude 10° 23:23:01 10° 38° (NE) 2,456 4.1 -6.8°
Enters shadow 23:24:55 - 32° (NNE) 3,135 4.7 -7.2°
